TimeEDT,TemperatureF,Dew PointF,Humidity,Sea Level PressureIn,VisibilityMPH,Wind Direction,Wind SpeedMPH,Gust SpeedMPH,PrecipitationIn,Events,Conditions,WindDirDegrees,DateUTC
12:15 AM,60.8,48.2,63,30.14,10.0,ESE,3.5,-,N/A,,Overcast,110,2013-04-28 04:15:00
12:35 AM,60.8,48.2,63,30.14,10.0,East,3.5,-,N/A,,Scattered Clouds,100,2013-04-28 04:35:00
12:55 AM,60.8,50.0,68,30.13,10.0,East,3.5,-,N/A,,Scattered Clouds,100,2013-04-28 04:55:00
1:15 AM,60.8,50.0,68,30.12,10.0,ESE,4.6,-,N/A,,Scattered Clouds,110,2013-04-28 05:15:00
1:35 AM,59.0,50.0,72,30.11,10.0,East,4.6,-,N/A,,Clear,100,2013-04-28 05:35:00
1:55 AM,59.0,50.0,72,30.10,10.0,ESE,4.6,-,N/A,,Scattered Clouds,110,2013-04-28 05:55:00
2:15 AM,59.0,50.0,72,30.09,10.0,ESE,4.6,-,N/A,,Scattered Clouds,110,2013-04-28 06:15:00
2:35 AM,59.0,50.0,72,30.08,10.0,East,3.5,-,N/A,,Mostly Cloudy,100,2013-04-28 06:35:00
2:55 AM,59.0,50.0,72,30.07,10.0,ESE,4.6,-,N/A,,Mostly Cloudy,110,2013-04-28 06:55:00
3:15 AM,59.0,50.0,72,30.06,10.0,ESE,4.6,-,N/A,,Overcast,110,2013-04-28 07:15:00
3:35 AM,59.0,50.0,72,30.05,10.0,ESE,4.6,-,N/A,,Overcast,110,2013-04-28 07:35:00
3:55 AM,59.0,50.0,72,30.05,10.0,SE,3.5,-,N/A,,Overcast,130,2013-04-28 07:55:00
4:15 AM,59.0,50.0,72,30.05,10.0,SE,4.6,-,N/A,,Overcast,130,2013-04-28 08:15:00
4:35 AM,59.0,50.0,72,30.05,10.0,SSE,5.8,-,N/A,,Overcast,150,2013-04-28 08:35:00
4:55 AM,59.0,51.8,77,30.04,10.0,SE,3.5,-,N/A,Rain,Light Rain,140,2013-04-28 08:55:00
5:15 AM,57.2,51.8,82,30.04,3.0,ESE,3.5,-,N/A,Rain,Rain,120,2013-04-28 09:15:00
5:35 AM,55.4,53.6,94,30.04,5.0,SE,5.8,-,N/A,Rain,Light Rain,130,2013-04-28 09:35:00
5:55 AM,55.4,53.6,94,30.04,4.0,SE,3.5,-,N/A,Rain,Rain,130,2013-04-28 09:55:00
6:15 AM,55.4,53.6,94,30.03,4.0,Calm,Calm,-,N/A,Rain,Rain,0,2013-04-28 10:15:00
6:35 AM,55.4,53.6,94,30.02,4.0,SE,5.8,-,N/A,Rain,Light Rain,140,2013-04-28 10:35:00
6:55 AM,55.4,53.6,94,30.02,5.0,SE,4.6,-,N/A,Rain,Light Rain,130,2013-04-28 10:55:00
7:15 AM,55.4,53.6,94,30.02,7.0,SSE,3.5,-,N/A,Rain,Light Rain,160,2013-04-28 11:15:00
7:35 AM,55.4,53.6,94,30.03,10.0,SSE,4.6,-,N/A,,Overcast,150,2013-04-28 11:35:00
7:55 AM,55.4,53.6,94,30.04,7.0,SE,3.5,-,N/A,,Overcast,140,2013-04-28 11:55:00
8:15 AM,55.4,53.6,94,30.03,10.0,Calm,Calm,-,N/A,,Overcast,0,2013-04-28 12:15:00
8:35 AM,57.2,53.6,88,30.03,10.0,SE,4.6,-,N/A,,Overcast,140,2013-04-28 12:35:00
9:15 AM,59.0,53.6,82,30.02,10.0,SE,3.5,-,N/A,,Overcast,140,2013-04-28 13:15:00
9:35 AM,59.0,53.6,82,30.02,10.0,SSE,4.6,-,N/A,,Overcast,150,2013-04-28 13:35:00
9:55 AM,59.0,53.6,82,30.02,10.0,South,3.5,-,N/A,,Overcast,170,2013-04-28 13:55:00
10:15 AM,60.8,53.6,77,30.02,10.0,SSE,5.8,-,N/A,,Overcast,160,2013-04-28 14:15:00
10:35 AM,60.8,53.6,77,30.02,10.0,SSE,4.6,-,N/A,,Overcast,150,2013-04-28 14:35:00
10:55 AM,60.8,53.6,77,30.02,10.0,South,6.9,-,N/A,,Mostly Cloudy,170,2013-04-28 14:55:00
11:15 AM,62.6,53.6,72,30.02,10.0,SSE,9.2,-,N/A,,Mostly Cloudy,150,2013-04-28 15:15:00
11:35 AM,62.6,53.6,72,30.01,10.0,SSE,6.9,-,N/A,,Mostly Cloudy,160,2013-04-28 15:35:00
11:55 AM,64.4,53.6,68,30.01,10.0,SSW,8.1,-,N/A,,Scattered Clouds,200,2013-04-28 15:55:00
12:15 PM,64.4,53.6,68,30.01,10.0,South,9.2,-,N/A,,Scattered Clouds,180,2013-04-28 16:15:00
12:35 PM,64.4,53.6,68,30.01,10.0,South,5.8,-,N/A,,Mostly Cloudy,170,2013-04-28 16:35:00
12:55 PM,64.4,51.8,64,29.99,10.0,South,8.1,-,N/A,,Overcast,170,2013-04-28 16:55:00
1:15 PM,64.4,51.8,64,29.99,10.0,SSE,3.5,-,N/A,,Overcast,160,2013-04-28 17:15:00
1:35 PM,68.0,51.8,56,29.98,10.0,South,8.1,-,N/A,,Scattered Clouds,180,2013-04-28 17:35:00
1:55 PM,66.2,51.8,60,29.97,10.0,South,6.9,-,N/A,,Scattered Clouds,180,2013-04-28 17:55:00
2:15 PM,66.2,51.8,60,29.96,10.0,South,4.6,-,N/A,,Scattered Clouds,170,2013-04-28 18:15:00
2:55 PM,68.0,51.8,56,29.95,10.0,South,3.5,-,N/A,,Mostly Cloudy,180,2013-04-28 18:55:00
3:15 PM,69.8,51.8,53,29.94,10.0,SSE,9.2,-,N/A,,Mostly Cloudy,150,2013-04-28 19:15:00
3:35 PM,68.0,51.8,56,29.94,10.0,SSW,8.1,-,N/A,,Overcast,200,2013-04-28 19:35:00
3:55 PM,68.0,51.8,56,29.93,10.0,SSW,9.2,-,N/A,,Overcast,210,2013-04-28 19:55:00
4:15 PM,68.0,51.8,56,29.93,10.0,SSW,6.9,-,N/A,,Overcast,210,2013-04-28 20:15:00
4:35 PM,68.0,51.8,56,29.92,10.0,SSW,6.9,-,N/A,,Overcast,210,2013-04-28 20:35:00
4:55 PM,68.0,51.8,56,29.91,10.0,South,5.8,-,N/A,,Overcast,180,2013-04-28 20:55:00
5:15 PM,68.0,51.8,56,29.91,10.0,SSW,5.8,-,N/A,,Overcast,210,2013-04-28 21:15:00
5:35 PM,68.0,51.8,56,29.90,10.0,South,4.6,-,N/A,,Mostly Cloudy,190,2013-04-28 21:35:00
5:55 PM,69.8,51.8,53,29.90,10.0,Calm,Calm,-,N/A,,Scattered Clouds,0,2013-04-28 21:55:00
6:15 PM,68.0,51.8,56,29.90,10.0,SSE,3.5,-,N/A,,Mostly Cloudy,160,2013-04-28 22:15:00
6:35 PM,68.0,51.8,56,29.90,10.0,South,6.9,-,N/A,,Mostly Cloudy,170,2013-04-28 22:35:00
6:55 PM,69.8,51.8,53,29.90,10.0,SSW,9.2,16.1,N/A,,Scattered Clouds,200,2013-04-28 22:55:00
7:15 PM,69.8,51.8,53,29.90,10.0,South,9.2,17.3,N/A,,Clear,180,2013-04-28 23:15:00
7:35 PM,68.0,50.0,52,29.91,10.0,South,4.6,16.1,N/A,,Clear,190,2013-04-28 23:35:00
7:55 PM,66.2,50.0,56,29.91,10.0,South,8.1,-,N/A,,Scattered Clouds,190,2013-04-28 23:55:00
8:35 PM,64.4,51.8,64,29.91,10.0,South,4.6,-,N/A,,Scattered Clouds,180,2013-04-29 00:35:00
8:55 PM,64.4,50.0,59,29.91,10.0,South,5.8,-,N/A,,Scattered Clouds,170,2013-04-29 00:55:00
9:15 PM,62.6,50.0,63,29.93,10.0,SSW,3.5,-,N/A,,Scattered Clouds,210,2013-04-29 01:15:00
9:35 PM,62.6,50.0,63,29.93,10.0,South,3.5,-,N/A,,Overcast,180,2013-04-29 01:35:00
9:55 PM,62.6,50.0,63,29.93,10.0,South,3.5,-,N/A,,Scattered Clouds,170,2013-04-29 01:55:00
10:15 PM,62.6,50.0,63,29.94,10.0,Calm,Calm,-,N/A,,Mostly Cloudy,0,2013-04-29 02:15:00
10:35 PM,62.6,50.0,63,29.94,10.0,Calm,Calm,-,N/A,,Scattered Clouds,0,2013-04-29 02:35:00
10:55 PM,62.6,51.8,68,29.94,10.0,SSW,3.5,-,N/A,,Mostly Cloudy,210,2013-04-29 02:55:00
11:15 PM,62.6,51.8,68,29.94,10.0,Calm,Calm,-,N/A,,Overcast,0,2013-04-29 03:15:00
11:35 PM,62.6,51.8,68,29.94,10.0,SSW,3.5,-,N/A,,Overcast,210,2013-04-29 03:35:00
11:55 PM,62.6,51.8,68,29.94,10.0,Calm,Calm,-,N/A,,Overcast,0,2013-04-29 03:55:00